Wind_Speed
18 18 17 17 18 17 18 19 17 15 14 14 15 15 13 11 11 11 10 10 11 11 11 10 10 10 10 10 9 9 9 9 9 9 9 10 11 11 11 10 10 11 11 11 12 13 12 12 12
18 18 18 18 18 18 20 20 18 16 15 15 15 14 13 12 12 12 12 12 12 12 11 11 10 10 10 10 10 10 10 10 10 9 9 10 10 10 10 10 10 11 11 12 12 11 11 11 11
18 19 18 19 20 20 21 21 19 17 16 15 15 14 13 13 13 13 13 12 12 12 11 11 10 10 10 10 10 10 10 10 10 10 9 10 10 10 10 10 11 11 12 12 12 12 11 11 11
18 19 19 20 21 21 21 21 20 18 16 15 15 14 13 13 13 13 12 12 12 12 12 11 11 11 10 10 10 10 10 9 9 9 9 9 10 10 10 10 11 11 11 11 12 12 12 11 10
19 20 20 20 21 21 21 21 20 18 17 16 15 14 14 14 14 13 13 13 13 12 12 12 11 11 11 10 11 10 10 9 9 9 10 10 9 10 10 10 10 10 10 11 11 11 11 11 10
16 18 19 20 20 21 21 21 19 18 17 16 15 14 14 14 14 14 14 13 14 13 13 13 12 12 12 11 11 11 11 10 11 10 10 10 10 11 10 10 10 10 10 11 11 11 11 11 10
16 17 18 19 19 20 21 20 19 18 17 16 15 15 14 14 15 14 14 13 13 13 14 13 13 13 13 12 11 11 12 12 12 11 11 11 11 11 11 10 10 10 11 11 11 10 10 9 9
16 15 16 18 18 20 20 19 18 18 18 17 16 15 15 15 15 15 14 14 13 13 13 13 14 13 14 13 12 12 11 12 12 12 12 11 11 11 10 10 10 10 11 11 11 10 9 9 8
13 13 15 17 18 19 19 18 18 19 18 18 16 15 15 15 15 15 14 14 13 13 13 13 13 13 13 13 13 12 11 12 12 12 12 12 11 10 10 9 9 9 9 9 9 9 8 7 7
11 11 13 15 17 18 18 17 18 18 18 18 17 16 16 16 15 15 14 14 13 13 13 13 13 13 12 12 12 12 11 11 11 11 11 11 10 10 9 8 8 8 7 8 7 7 6 6 6
10 10 12 13 15 16 16 17 17 18 17 17 17 16 16 16 15 15 14 14 14 13 13 13 13 13 13 13 12 11 11 11 10 10 9 9 9 8 8 8 7 7 6 6 6 5 5 4 4
8 9 11 13 14 15 16 17 17 17 17 18 17 16 15 15 14 14 14 13 14 14 14 14 14 13 13 12 11 11 11 10 9 8 8 8 8 7 6 6 6 6 5 5 4 4 3 3 3
6 9 10 12 13 15 15 15 16 16 17 18 17 16 15 15 14 13 13 13 13 13 13 13 13 13 13 12 12 11 10 10 10 8 8 7 7 7 7 6 6 6 5 4 3 2 2 2 2
6 7 9 11 12 13 14 15 15 16 18 17 17 16 16 15 14 14 13 13 13 13 12 11 12 12 12 11 11 10 10 9 8 8 8 7 7 6 6 6 6 6 5 4 3 2 1 1 1
6 6 8 10 11 12 13 14 15 15 16 16 16 16 15 15 15 14 13 13 13 12 12 11 11 11 11 10 9 8 8 8 8 7 7 7 7 6 5 5 5 5 4 3 3 2 1 0 1
5 5 7 9 9 9 11 12 14 14 15 16 16 15 15 15 14 14 13 13 12 12 11 11 10 10 10 9 8 8 7 7 7 7 7 7 7 6 5 4 3 3 3 3 2 2 2 2 2
5 5 6 7 8 8 10 11 12 14 14 15 16 16 15 15 14 13 12 13 13 12 11 11 10 10 9 9 8 7 7 6 6 6 6 6 5 4 4 3 3 2 2 2 3 3 3 3 3
5 5 4 4 6 7 9 10 11 12 13 14 15 15 15 14 14 13 12 12 12 12 11 10 10 10 10 9 8 7 7 6 5 5 4 5 4 4 3 3 2 2 2 3 3 3 3 4 4
6 6 4 3 3 5 7 8 9 10 11 12 13 13 13 13 13 13 12 12 11 11 11 11 10 11 10 9 9 7 6 6 5 4 4 3 3 4 3 3 2 2 3 3 4 4 4 5 5
7 6 4 3 0 3 5 6 7 10 10 11 11 11 12 12 11 11 11 11 11 10 10 10 10 10 10 10 9 8 7 6 5 5 4 3 3 3 3 3 3 3 4 4 5 5 5 6 6
8 6 5 4 2 1 3 4 6 8 8 9 9 10 11 11 10 10 11 11 10 10 10 10 9 9 9 9 9 9 8 7 6 5 5 3 3 4 3 3 4 4 5 5 5 6 6 6 6
10 9 8 7 6 5 4 4 4 5 7 8 8 9 11 10 10 10 10 10 10 9 9 9 9 9 8 8 8 8 8 7 7 6 5 4 4 3 3 4 4 4 5 5 6 6 6 6 7
12 12 11 10 9 7 6 5 3 3 5 6 7 9 10 10 9 9 10 10 9 9 9 8 8 8 8 7 7 7 7 7 6 6 5 5 4 4 4 4 5 5 5 6 7 7 7 7 7
15 14 13 12 12 11 7 6 3 3 4 5 6 8 9 9 9 9 9 9 9 8 8 7 7 7 7 7 6 6 6 6 6 6 5 5 5 5 5 5 5 5 6 6 7 7 7 7 7
18 17 15 15 13 10 8 7 5 2 3 4 5 7 8 7 7 8 8 8 8 8 7 7 6 7 7 6 6 5 6 6 5 6 6 6 6 6 6 6 6 7 7 7 7 8 8 8 8
20 19 17 15 13 11 11 9 6 3 2 3 4 5 5 5 5 6 7 8 9 8 7 7 7 7 7 7 6 6 5 5 6 6 6 6 6 7 7 8 7 7 8 8 8 8 9 8 8
21 20 19 16 14 14 13 10 8 6 3 3 3 4 3 4 4 5 6 7 7 8 7 7 7 7 7 8 7 6 6 6 6 6 7 8 8 8 8 8 9 8 8 8 8 9 9 9 9
22 21 20 19 16 16 15 11 10 8 5 4 4 4 4 5 5 5 5 5 6 6 7 8 8 8 8 8 7 7 7 6 6 7 7 8 8 9 9 9 9 9 9 9 9 9 9 9 9
24 25 24 21 20 17 15 11 9 8 6 5 5 4 4 4 5 4 5 5 5 5 6 7 7 7 8 8 8 7 7 7 7 8 8 9 9 10 10 10 10 10 10 10 9 9 9 10 10
24 25 25 23 20 18 16 14 11 9 8 7 6 5 4 4 4 4 4 4 5 5 6 6 7 8 8 8 7 8 8 7 8 9 9 10 10 10 11 11 11 11 10 10 10 10 10 10 11
Wind_Direction
64 61 55 50 46 46 47 51 52 52 52 48 47 47 53 57 63 63 63 67 71 75 78 78 80 81 82 83 88 91 94 99 107 113 114 116 118 121 121 124 128 127 126 127 130 135 135 133 133
63 59 54 47 45 44 46 50 52 51 50 50 51 52 57 61 66 68 69 70 73 77 81 83 83 84 85 87 90 94 101 105 107 109 115 117 118 118 118 121 125 126 129 130 128 131 133 130 128
62 58 51 44 45 44 46 49 50 49 49 50 54 56 59 63 66 67 68 70 74 77 80 83 83 85 85 87 91 97 104 104 104 106 112 118 121 121 120 124 124 125 128 129 130 132 131 132 130
60 57 48 43 45 45 46 48 48 47 49 52 55 57 60 65 65 64 65 67 71 73 77 83 83 86 89 91 93 96 102 104 108 110 112 116 118 121 120 120 122 122 127 130 133 132 132 133 130
57 53 46 44 45 43 43 45 44 43 47 53 57 59 60 62 65 66 66 66 70 68 74 81 83 84 87 91 93 91 96 101 106 110 111 110 115 123 121 117 118 121 127 132 135 134 131 130 130
56 51 47 44 44 40 41 44 42 41 45 51 56 59 60 63 66 68 68 67 67 69 73 80 83 85 88 87 87 91 95 98 102 107 109 109 111 115 116 116 114 114 118 127 130 130 129 132 133
53 49 44 44 42 39 41 44 46 43 45 50 55 59 62 65 65 65 67 68 68 70 75 80 82 88 90 86 87 90 95 97 98 103 107 110 106 104 106 108 107 109 115 120 125 128 130 132 132
53 51 44 46 43 39 40 42 46 47 44 49 54 57 61 66 65 61 61 66 68 69 74 79 84 89 88 84 88 90 93 96 98 102 104 104 105 104 103 105 105 107 111 119 124 126 132 135 135
50 48 46 45 42 40 41 40 43 47 46 48 53 58 61 64 65 64 63 65 67 69 73 79 84 87 86 86 90 90 91 96 96 100 100 101 104 105 106 106 106 108 111 114 119 123 132 136 137
52 49 50 46 43 40 40 39 41 44 44 48 51 56 60 64 65 66 67 68 67 69 73 77 82 84 85 88 89 89 90 95 95 97 100 103 104 105 106 105 108 111 112 113 114 116 121 128 133
67 62 52 49 46 39 39 41 45 47 46 49 51 55 58 60 62 65 68 71 69 69 73 78 76 78 83 86 87 88 88 91 92 91 94 99 102 102 100 100 103 110 113 113 114 118 121 126 134
71 70 57 51 50 43 39 41 45 47 47 49 51 54 56 58 61 64 67 70 71 72 74 77 78 77 79 83 86 87 86 88 89 91 89 91 93 93 93 94 97 101 104 106 111 114 116 123 138
77 64 59 57 55 46 39 41 43 47 47 47 50 53 56 58 60 63 67 71 73 75 77 78 78 76 79 82 84 84 88 88 87 89 91 90 91 91 90 92 89 84 85 92 109 108 97 107 130
92 73 62 57 55 49 43 44 42 48 49 49 50 52 57 57 58 61 65 69 72 73 74 77 76 76 76 80 83 84 86 83 84 84 84 87 88 87 85 89 84 83 77 70 70 83 87 90 196
109 96 77 64 54 47 44 47 45 46 45 47 49 51 55 57 57 58 62 64 68 70 70 72 74 76 75 74 77 79 79 77 80 77 78 78 79 84 84 85 79 76 69 58 50 50 44 282 289
130 106 89 71 60 51 44 47 43 42 39 42 45 49 52 55 55 55 58 61 63 66 66 67 70 71 69 69 72 73 74 74 71 68 67 69 76 80 78 78 74 64 48 35 21 356 337 311 301
140 124 98 75 60 48 42 39 40 40 39 40 43 47 49 51 53 54 57 59 59 61 62 63 65 66 64 62 64 70 72 72 69 65 61 66 73 77 69 67 58 41 23 5 342 331 317 306 298
156 143 105 73 63 45 32 29 34 36 42 39 38 43 46 49 52 53 55 57 58 60 60 60 62 63 62 59 60 62 64 63 64 61 57 58 65 67 64 60 49 20 6 349 335 321 315 308 301
188 170 125 97 67 37 24 22 28 32 37 39 38 41 43 44 48 50 51 52 55 59 60 61 61 64 61 56 55 57 56 55 59 57 56 51 52 55 53 38 17 0 345 339 335 322 314 308 304
188 188 162 156 85 8 6 11 20 29 40 40 39 39 41 40 44 45 47 47 50 56 58 60 61 61 60 54 52 52 53 55 54 57 61 54 39 34 28 9 356 352 344 333 328 324 311 306 304
198 205 208 219 248 289 337 352 11 24 35 37 36 36 40 43 46 45 46 46 48 53 56 57 59 58 57 54 53 53 52 51 53 55 54 49 33 28 17 358 349 347 344 339 331 331 322 311 301
203 210 218 228 248 261 267 311 346 11 19 26 39 42 41 44 46 45 45 44 47 49 50 50 48 46 49 51 50 48 47 46 45 46 42 35 28 18 12 1 353 350 342 334 325 325 327 316 306
211 216 221 227 237 245 252 273 302 350 11 18 35 41 41 41 43 44 43 42 45 46 48 46 40 40 43 47 46 44 43 40 37 34 33 31 29 21 7 355 349 346 340 334 330 324 324 328 318
215 217 219 223 231 236 238 246 254 321 6 21 36 37 36 35 36 41 45 42 39 42 44 42 39 39 40 40 41 39 36 34 32 28 23 20 15 8 360 350 337 331 328 327 328 325 324 325 326
214 215 218 220 223 230 227 238 253 298 357 10 11 26 27 30 33 37 41 38 32 35 37 33 35 34 32 30 30 29 23 19 19 17 10 4 2 360 355 348 339 330 325 324 323 321 320 319 318
216 217 220 225 227 228 227 239 240 253 305 341 349 3 18 21 26 31 33 31 28 29 27 23 22 21 20 18 19 20 17 13 12 10 6 1 359 355 351 345 336 330 327 324 323 323 324 322 318
214 217 221 228 232 228 228 229 231 241 264 295 319 331 351 2 14 27 26 23 19 20 19 16 17 15 11 13 9 5 6 6 5 5 7 4 357 351 345 343 339 333 329 329 327 327 329 327 325
216 219 220 226 231 229 226 233 239 237 243 267 302 326 335 348 354 11 18 14 14 15 16 15 14 11 9 3 355 354 352 350 348 346 347 350 348 345 345 345 342 337 334 330 327 327 328 328 327
213 216 219 222 226 229 226 229 234 244 253 271 289 309 328 338 340 354 360 360 3 11 11 10 8 5 1 357 356 353 346 341 341 338 336 337 338 341 345 344 341 339 332 330 328 325 325 327 326
216 217 220 223 225 227 232 231 229 238 249 271 280 280 292 310 318 331 344 347 349 359 3 2 2 360 353 349 348 345 339 335 334 332 332 333 335 337 339 339 339 339 336 331 329 327 325 325 323
Height
5901 5900 5899 5898 5897 5895 5893 5892 5891 5890 5889 5887 5885 5884 5883 5883 5882 5883 5880 5878 5877 5876 5876 5876 5876 5875 5875 5874 5874 5874 5874 5874 5874 5874 5874 5874 5874 5875 5875 5875 5875 5875 5876 5876 5876 5877 5878 5879 5880
5903 5902 5902 5900 5898 5897 5895 5894 5893 5892 5890 5888 5887 5886 5885 5884 5883 5882 5880 5879 5878 5878 5878 5877 5877 5877 5877 5876 5876 5876 5876 5876 5876 5876 5875 5875 5876 5876 5876 5877 5876 5876 5877 5878 5878 5879 5880 5881 5882
5906 5905 5905 5902 5899 5898 5897 5896 5895 5893 5892 5891 5890 5889 5887 5886 5884 5883 5882 5881 5880 5880 5880 5879 5879 5879 5878 5878 5878 5878 5878 5878 5877 5877 5877 5877 5878 5878 5878 5878 5878 5877 5878 5878 5879 5880 5881 5883 5884
5907 5907 5906 5904 5901 5900 5899 5898 5897 5895 5894 5893 5892 5891 5889 5887 5886 5885 5884 5883 5883 5882 5881 5881 5881 5880 5880 5880 5880 5880 5880 5880 5879 5879 5879 5880 5879 5879 5880 5879 5879 5879 5879 5879 5880 5882 5883 5884 5885
5910 5909 5908 5905 5903 5902 5901 5900 5899 5897 5896 5894 5894 5893 5891 5889 5888 5887 5886 5885 5884 5884 5883 5882 5882 5882 5882 5882 5882 5882 5882 5881 5881 5881 5882 5882 5881 5881 5881 5881 5880 5880 5880 5880 5882 5884 5885 5886 5887
5913 5911 5911 5908 5906 5905 5904 5902 5901 5900 5898 5896 5896 5895 5893 5891 5890 5889 5888 5887 5886 5885 5885 5885 5884 5884 5884 5884 5883 5883 5883 5883 5883 5883 5884 5884 5883 5883 5883 5883 5882 5881 5881 5882 5884 5885 5886 5887 5888
5916 5914 5913 5911 5910 5908 5907 5906 5904 5902 5900 5899 5897 5897 5895 5893 5892 5891 5890 5889 5888 5888 5887 5887 5886 5886 5886 5886 5885 5885 5885 5885 5885 5885 5885 5885 5886 5886 5886 5885 5885 5884 5883 5884 5885 5887 5888 5889 5890
5918 5917 5915 5914 5913 5911 5909 5908 5907 5904 5902 5901 5899 5898 5897 5896 5894 5893 5892 5891 5891 5890 5889 5889 5888 5888 5888 5888 5887 5888 5888 5888 5888 5887 5887 5888 5888 5888 5888 5888 5888 5887 5886 5887 5888 5889 5890 5890 5891
5920 5921 5918 5917 5916 5914 5912 5911 5909 5907 5905 5903 5902 5900 5899 5898 5896 5895 5895 5894 5893 5892 5891 5891 5891 5890 5890 5890 5889 5890 5890 5890 5890 5890 5890 5890 5890 5890 5890 5890 5890 5890 5890 5890 5890 5891 5891 5891 5892
5922 5922 5920 5920 5918 5916 5915 5913 5911 5909 5907 5905 5904 5902 5901 5900 5899 5898 5897 5896 5895 5894 5894 5893 5893 5892 5892 5892 5892 5892 5892 5892 5892 5893 5892 5892 5892 5892 5892 5892 5892 5892 5892 5892 5892 5893 5893 5893 5893
5924 5924 5923 5922 5920 5919 5917 5916 5914 5912 5910 5908 5906 5904 5903 5902 5900 5900 5899 5899 5898 5897 5896 5895 5895 5894 5894 5894 5894 5894 5894 5894 5894 5895 5894 5894 5894 5894 5894 5894 5894 5894 5894 5894 5894 5894 5894 5894 5894
5926 5925 5924 5923 5922 5921 5919 5917 5916 5915 5914 5911 5909 5907 5905 5904 5903 5902 5902 5901 5900 5899 5899 5898 5897 5897 5896 5896 5896 5896 5896 5896 5896 5896 5896 5896 5896 5896 5896 5896 5896 5896 5896 5895 5895 5896 5895 5895 5895
5927 5926 5925 5925 5924 5923 5922 5920 5919 5917 5915 5913 5911 5909 5908 5906 5905 5904 5904 5903 5902 5901 5900 5900 5899 5899 5899 5898 5898 5898 5898 5898 5898 5898 5897 5897 5897 5897 5897 5897 5897 5897 5897 5897 5896 5896 5896 5896 5896
5928 5928 5927 5927 5926 5925 5924 5923 5921 5919 5917 5916 5914 5912 5910 5909 5907 5906 5906 5905 5904 5903 5902 5902 5901 5901 5901 5900 5900 5900 5900 5900 5899 5899 5899 5899 5899 5898 5898 5898 5898 5898 5898 5897 5897 5897 5897 5896 5896
5929 5929 5929 5929 5928 5927 5927 5925 5923 5921 5920 5918 5916 5914 5912 5911 5910 5909 5908 5907 5906 5905 5904 5904 5903 5903 5902 5901 5902 5902 5902 5902 5901 5901 5900 5900 5900 5899 5899 5899 5899 5898 5898 5898 5897 5897 5896 5896 5896
5929 5930 5930 5930 5929 5928 5929 5927 5926 5924 5922 5920 5918 5917 5915 5913 5912 5910 5910 5909 5908 5907 5906 5905 5905 5904 5904 5904 5903 5903 5903 5903 5902 5902 5902 5901 5901 5900 5900 5900 5900 5899 5899 5898 5898 5897 5896 5896 5895
5929 5930 5930 5930 5930 5929 5929 5928 5927 5926 5924 5922 5920 5919 5917 5915 5914 5913 5911 5911 5909 5908 5907 5907 5906 5906 5905 5905 5904 5904 5904 5903 5903 5903 5903 5902 5901 5901 5900 5900 5900 5899 5898 5898 5897 5896 5896 5895 5895
5929 5930 5930 5930 5930 5929 5929 5930 5929 5927 5926 5925 5923 5921 5919 5918 5916 5915 5913 5912 5911 5910 5909 5908 5907 5907 5906 5905 5905 5905 5904 5904 5904 5903 5903 5902 5901 5901 5901 5900 5900 5899 5898 5898 5897 5896 5896 5895 5894
5928 5929 5930 5930 5930 5930 5930 5930 5929 5928 5927 5926 5925 5923 5921 5920 5918 5917 5915 5914 5913 5911 5910 5909 5908 5908 5907 5907 5906 5906 5905 5905 5904 5903 5903 5902 5901 5901 5901 5900 5900 5899 5898 5897 5896 5895 5895 5894 5893
5927 5929 5930 5930 5930 5931 5930 5930 5930 5929 5928 5928 5926 5925 5923 5922 5920 5919 5917 5915 5914 5913 5912 5911 5910 5909 5909 5908 5907 5906 5906 5905 5904 5903 5903 5902 5901 5901 5900 5900 5899 5898 5897 5897 5895 5895 5893 5892 5891
5926 5928 5929 5930 5930 5930 5930 5930 5930 5929 5929 5929 5928 5926 5924 5923 5922 5920 5919 5917 5916 5914 5913 5912 5911 5911 5910 5909 5908 5907 5906 5905 5905 5904 5903 5902 5901 5901 5900 5899 5898 5898 5897 5896 5894 5894 5892 5891 5890
5925 5927 5928 5929 5929 5929 5930 5930 5930 5929 5929 5928 5928 5927 5925 5924 5923 5922 5920 5919 5917 5916 5914 5913 5912 5912 5911 5910 5909 5908 5907 5906 5905 5904 5903 5902 5901 5900 5899 5899 5898 5897 5896 5895 5893 5892 5891 5889 5888
5923 5925 5926 5927 5928 5929 5929 5930 5930 5929 5928 5928 5928 5927 5926 5925 5924 5923 5922 5920 5919 5917 5916 5914 5913 5912 5912 5911 5910 5909 5908 5907 5906 5905 5904 5902 5901 5900 5899 5898 5897 5896 5895 5894 5892 5891 5889 5888 5886
5921 5923 5924 5925 5927 5928 5928 5929 5929 5928 5928 5928 5927 5927 5926 5925 5925 5924 5922 5921 5920 5918 5917 5915 5914 5913 5912 5912 5911 5909 5908 5907 5906 5905 5903 5902 5901 5900 5898 5897 5896 5895 5894 5892 5891 5889 5888 5886 5885
5918 5920 5922 5922 5924 5925 5927 5927 5928 5928 5928 5928 5927 5927 5926 5925 5925 5924 5923 5922 5920 5918 5917 5916 5915 5914 5913 5912 5911 5910 5909 5907 5906 5905 5903 5902 5901 5899 5898 5897 5895 5894 5893 5891 5889 5888 5886 5885 5883
5914 5917 5919 5921 5922 5923 5924 5924 5926 5926 5926 5926 5926 5926 5926 5925 5925 5924 5923 5922 5921 5918 5917 5917 5915 5914 5913 5912 5911 5910 5909 5907 5906 5905 5903 5902 5900 5899 5897 5896 5894 5893 5891 5889 5888 5886 5884 5883 5881
5911 5913 5916 5918 5919 5920 5921 5922 5924 5924 5924 5925 5925 5925 5925 5925 5924 5923 5922 5922 5921 5919 5918 5916 5915 5914 5913 5912 5910 5909 5908 5907 5906 5904 5903 5901 5900 5898 5896 5895 5893 5891 5889 5888 5886 5885 5883 5881 5879
5907 5910 5912 5914 5915 5916 5918 5919 5921 5922 5923 5924 5924 5924 5924 5924 5923 5922 5922 5921 5921 5919 5918 5916 5915 5914 5913 5911 5910 5909 5908 5906 5905 5903 5902 5900 5899 5897 5895 5893 5892 5890 5888 5886 5884 5883 5881 5879 5877
5902 5905 5907 5910 5912 5913 5915 5919 5919 5920 5921 5921 5922 5922 5922 5923 5923 5922 5921 5921 5920 5919 5917 5916 5915 5913 5912 5911 5909 5908 5906 5905 5904 5902 5901 5899 5898 5896 5894 5892 5890 5888 5886 5884 5883 5881 5879 5877 5875
5898 5901 5904 5907 5908 5910 5912 5917 5917 5918 5919 5919 5920 5920 5921 5921 5921 5921 5920 5920 5918 5917 5916 5915 5914 5913 5911 5910 5908 5907 5905 5904 5902 5901 5899 5897 5896 5894 5893 5891 5889 5887 5885 5883 5881 5879 5877 5875 5873